Location: Casilda
(33.0440°S, 61.1680°W)
Time: 19:15:23
(UTC-03:00)

ISS - Pass Details

Date: 13 June 2018
Orbit: 401 x 408 km, 51.6° (Epoch: 10 December)

Event Time Altitude Azimuth Distance (km) Brightness Sun altitude
Exits shadow 05:09:19 -1° 130° (SE) 2,458 0.7 -35.9°
Enters shadow 06:06:28 -67° 260° (W) 12,196 3.6 -24.1°
Maximum altitude 06:43:51 16° 148° (SSE) 1,191 -1.3 -16.6°
